Location: Sabalos
(43.2860°N, 0.1414°E)
Time: 21:01:22
(UTC+00:00)

Cosmos 1606 - Pass Details

Date: 05 July 2020
Orbit: 504 x 527 km, 82.5° (Epoch: 14 August)

Event Time Altitude Azimuth Distance (km) Brightness Sun altitude
Rises 22:46:22 0° 2° (N) 2,664 7.5 -21.7°
Reaches altitude 10° 22:48:44 10° 14° (NNE) 1,773 6.2 -21.8°
Maximum altitude 22:52:09 28° 75° (ENE) 1,000 4.1 -22.0°
Enters shadow 22:52:10 28° 76° (ENE) 1,000 4.1 -22.0°
